Weather History for Carbondale, IL

Change the Weather History Date:

Wednesday, November 21, 2012

  Actual Average Record
Temperature  
Mean Temperature 48 °F -  
Max Temperature 62 °F 55 °F 76 °F (1913)
Min Temperature 35 °F 34 °F 12 °F (1937)
Degree Days  
Heating Degree Days 16    
Moisture  
Dew Point 41 °F    
Average Humidity 91    
Maximum Humidity 100    
Minimum Humidity 56    
Precipitation  
Precipitation 0.00 in - - ()
Sea Level Pressure  
Sea Level Pressure 30.22 in    
Wind  
Wind Speed 2 mph (West)    
Max Wind Speed 4 mph    
Max Gust Speed -    
Visibility 2 miles    
Events Fog    
Averages and records for this station are not official NWS values.
T = Trace of Precipitation, MM = Missing Value Source: NWS Daily Summary

Daily Weather History Graph

Daily Weather History Graph

Search for Another Location

Airport:

Trip Planner

Search our weather history database for the weather conditions in past years. The results will help you decide how hot, cold, wet, or windy it might be!

Date:

Astronomy

Nov. 21, 2012 Rise Set
Actual Time 6:44 AM CST 4:41 PM CST
Civil Twilight 6:15 AM CST 5:10 PM CST
Nautical Twilight 5:43 AM CST 5:42 PM CST
Astronomical Twilight 5:12 AM CST 6:13 PM CST
Moon 12:52 PM CST 12:09 AM CST
Length of Visible Light 10h 54m
Length of Day
9h 57m
First Quarter, 62% of the Moon is Illuminated
Nov 21
First Quarter
Nov 28
Full
Dec 6
Last Quarter
Dec 13
New
Dec 19
First Quarter

Hourly Weather History & Observations

Time (CST) Temp. Windchill Dew Point Humidity Pressure Visibility Wind Dir Wind Speed Gust Speed Precip Events Conditions
12:20 AM 44.6 °F 43.1 °F 44.6 °F 100% 30.18 in 2.0 mi West 3.5 mph - N/A   Clear
12:30 AM 42.8 °F - 41.0 °F 93% 30.18 in 1.5 mi Calm Calm - N/A   Clear
12:41 AM 42.8 °F 41.1 °F 41.0 °F 93% 30.18 in 2.0 mi NW 3.5 mph - N/A   Clear
12:52 AM 42.1 °F - 41.0 °F 96% 30.18 in 1.0 mi Calm Calm - N/A   Clear
1:10 AM 44.6 °F 43.1 °F 42.8 °F 93% 30.18 in 2.0 mi NNW 3.5 mph - N/A   Clear
1:24 AM 44.6 °F 43.1 °F 42.8 °F 93% 30.19 in 1.8 mi NW 3.5 mph - N/A   Clear
1:49 AM 42.8 °F - 41.0 °F 93% 30.19 in 0.8 mi Calm Calm - N/A   Mist
1:52 AM 42.1 °F - 41.0 °F 96% 30.19 in 0.5 mi Calm Calm - N/A Fog Fog
2:05 AM 41.0 °F - 39.2 °F 93% 30.20 in 1.2 mi Calm Calm - N/A   Partly Cloudy
2:13 AM 41.0 °F - 39.2 °F 93% 30.20 in 0.8 mi Calm Calm - N/A   Mist
2:21 AM 42.8 °F - 39.2 °F 87% 30.20 in 0.2 mi Calm Calm - N/A Fog Fog
2:38 AM 39.2 °F 37.0 °F 39.2 °F 100% 30.20 in 1.0 mi NW 3.5 mph - N/A   Mist
2:41 AM 39.2 °F 37.0 °F 39.2 °F 100% 30.20 in 2.0 mi NW 3.5 mph - N/A   Scattered Clouds
2:52 AM 39.9 °F 37.8 °F 39.0 °F 97% 30.20 in 2.0 mi NW 3.5 mph - N/A   Partly Cloudy
3:10 AM 42.8 °F 41.1 °F 42.8 °F 100% 30.20 in 1.5 mi NW 3.5 mph - N/A   Clear
3:25 AM 37.4 °F - 37.4 °F 100% 30.20 in 0.2 mi Calm Calm - N/A Fog Fog
3:32 AM 39.2 °F - 37.4 °F 93% 30.20 in 0.2 mi Calm Calm - N/A Fog Fog
3:52 AM 41.0 °F - 39.9 °F 96% 30.21 in 0.2 mi Calm Calm - N/A Fog Fog
4:52 AM 37.0 °F - 36.0 °F 96% 30.23 in 0.2 mi Calm Calm - N/A Fog Fog
5:52 AM 37.9 °F - 37.9 °F 100% 30.25 in 0.2 mi Calm Calm - N/A Fog Fog
6:52 AM 39.9 °F - 39.9 °F 100% 30.26 in 0.2 mi Calm Calm - N/A Fog Fog
7:52 AM 42.1 °F 40.2 °F 41.0 °F 96% 30.27 in 0.2 mi WSW 3.5 mph - N/A Fog Fog
8:52 AM 43.0 °F 41.3 °F 42.1 °F 97% 30.29 in 0.2 mi NW 3.5 mph - N/A Fog Fog
9:52 AM 46.0 °F - 45.0 °F 96% 30.31 in 0.2 mi Calm Calm - N/A Fog Fog
10:52 AM 46.9 °F - 46.9 °F 100% 30.30 in 0.2 mi Calm Calm - N/A Fog Fog
11:08 AM 48.2 °F - 46.4 °F 93% 30.28 in 0.2 mi Calm Calm - N/A Fog Fog
11:26 AM 48.2 °F - 46.4 °F 93% 30.28 in 0.5 mi Calm Calm - N/A   Overcast
11:27 AM 48.2 °F - 48.2 °F 100% 30.28 in 0.8 mi Calm Calm - N/A   Mostly Cloudy
11:44 AM 50.0 °F - 48.2 °F 94% 30.27 in 1.0 mi Calm Calm - N/A   Mostly Cloudy
11:52 AM 52.0 °F - 48.0 °F 86% 30.27 in 2.0 mi Calm Calm - N/A   Scattered Clouds
12:02 PM 55.4 °F - 48.2 °F 77% 30.26 in 4.0 mi NNW 3.5 mph - N/A   Clear
12:52 PM 59.0 °F - 46.9 °F 64% 30.25 in 7.0 mi Calm Calm - N/A   Clear
1:52 PM 61.0 °F - 46.0 °F 58% 30.23 in 7.0 mi Calm Calm - N/A   Clear
2:52 PM 62.1 °F - 46.0 °F 56% 30.22 in 8.0 mi Calm Calm - N/A   Clear
3:52 PM 61.0 °F - 46.9 °F 60% 30.22 in 8.0 mi Calm Calm - N/A   Clear
4:52 PM 55.0 °F - 45.0 °F 69% 30.22 in 8.0 mi Calm Calm - N/A   Clear
5:52 PM 51.1 °F - 44.1 °F 77% 30.21 in 8.0 mi Calm Calm - N/A   Clear
6:52 PM 46.0 °F 44.8 °F 43.0 °F 89% 30.21 in 6.0 mi SSE 3.5 mph - N/A   Clear
7:52 PM 44.1 °F 42.5 °F 42.1 °F 93% 30.21 in 5.0 mi SSE 3.5 mph - N/A   Clear
8:29 PM 41.0 °F 39.0 °F 39.2 °F 93% 30.19 in 2.0 mi SSE 3.5 mph - N/A   Clear
8:40 PM 41.0 °F - 39.2 °F 93% 30.19 in 3.0 mi Calm Calm - N/A   Clear
8:52 PM 41.0 °F - 39.0 °F 93% 30.20 in 3.0 mi Calm Calm - N/A   Clear
9:33 PM 39.2 °F - 39.2 °F 100% 30.20 in 2.5 mi Calm Calm - N/A   Clear
9:41 PM 39.2 °F 37.0 °F 37.4 °F 93% 30.20 in 3.0 mi South 3.5 mph - N/A   Clear
9:52 PM 37.9 °F 35.5 °F 37.0 °F 97% 30.20 in 3.0 mi South 3.5 mph - N/A   Clear
10:23 PM 39.2 °F - 39.2 °F 100% 30.19 in 1.8 mi Calm Calm - N/A   Clear
10:35 PM 37.4 °F - 37.4 °F 100% 30.19 in 2.0 mi Calm Calm - N/A   Clear
10:52 PM 37.9 °F 35.5 °F 37.0 °F 97% 30.20 in 2.5 mi South 3.5 mph - N/A   Clear
11:01 PM 37.4 °F 34.9 °F 35.6 °F 93% 30.19 in 3.0 mi SSE 3.5 mph - N/A   Clear
11:12 PM 37.4 °F - 35.6 °F 93% 30.19 in 2.5 mi Calm Calm - N/A   Clear
11:34 PM 35.6 °F - 35.6 °F 100% 30.19 in 3.0 mi Calm Calm - N/A   Clear
11:52 PM 37.0 °F - 35.1 °F 93% 30.20 in 2.5 mi Calm Calm - N/A   Clear